Regional Weather Roundup
Issued by NWS Green Bay, WI

Home | Current Version | Previous Version | Graphics & Text | Print | Product List | Glossary Off
Versions: 1 2 3 4 5 6 7 8 9 10 11 12 13 14 15 16 17 18 19 20 21 22 23 24 25 26 27 28 29 30 31 32 33 34 35 36 37 38 39 40 41 42 43 44 45 46 47 48 49 50

000
ASUS43 KGRB 281810
RWRGRB

NORTH-CENTRAL AND NORTHEAST WISCONSIN REGIONAL WEATHER ROUNDUP
NATIONAL WEATHER SERVICE GREEN BAY WI
100 PM CDT MON JUL 28 2014

WIZ005-009-010>012-018-019-281900-
NORTH CENTRAL WISCONSIN

CITY           SKY/WX    TMP DP  RH WIND       PRES   REMARKS
IRONWOOD       NOT AVBL
MANITOWISH WTR PTSUNNY   68  51  53 NW15      30.13S
ARBOR VITAE    PTSUNNY   72  51  47 NW15G22   30.13S
EAGLE RIVER    PTSUNNY   68  46  45 N10G20    30.11F
LAND O LAKES   CLOUDY    68  49  51 NW10      30.12F
RHINELANDER    PTSUNNY   68  49  50 VRB7      30.13S
PHILLIPS       PTSUNNY   67  52  57 N6G16     30.14F
ANTIGO         PTSUNNY   67  50  53 N14G23    30.10F
TOMAHAWK       PTSUNNY   68  50  52 NW13      30.13F
MERRILL        PTSUNNY   70  52  52 N13       30.11F
$$

WIZ013-073-281900-
NORTHEAST WISCONSIN

CITY           SKY/WX    TMP DP  RH WIND       PRES   REMARKS
IRON MOUNTAIN  MOSUNNY   72  46  39 NW21      30.05F
MARINETTE      MOSUNNY   66  48  52 SE9       30.05F
OCONTO         SUNNY     65  50  59 SE8       30.07F
$$

WIZ017-030-035>037-045-281900-
CENTRAL WISCONSIN

CITY           SKY/WX    TMP DP  RH WIND       PRES   REMARKS
MEDFORD        CLOUDY    67  52  59 NW9       30.14F
WAUSAU         PTSUNNY   71  50  47 NW12G20   30.09F
MOSINEE        PTSUNNY   68  50  52 N17       30.13F
MARSHFIELD     CLOUDY    71  50  47 N14G21    30.13F
WISC RAPIDS    MOSUNNY   72  50  45 NW16      30.13F
STEVENS POINT  CLOUDY    68  49  50 NW10      30.11F
WAUPACA        PTSUNNY   72  50  45 N7        30.10F
SHAWANO        CLOUDY    70  54  55 W5        30.08F
CLINTONVILLE   CLOUDY    70  48  46 N10       30.08F
$$

WIZ038-039-048-051-281900-
FOX VALLEY

CITY           SKY/WX    TMP DP  RH WIND       PRES   REMARKS
NWS GREEN BAY  SUNNY     69  52  54 N9G17     30.09F
APPLETON       PTSUNNY   66  50  55 NW9       30.11F
OSHKOSH        SUNNY     69  52  54 N7        30.09F
FOND DU LAC    MOSUNNY   68  50  52 N15       30.10F
$$

WIZ022-050-052-281900-
EAST CENTRAL WISCONSIN

CITY           SKY/WX    TMP DP  RH WIND       PRES   REMARKS
STURGEON BAY   SUNNY     63  43  48 N9        30.08F
MANITOWOC      SUNNY     63  48  58 N7        30.09F
SHEBOYGAN      MOSUNNY   64  50  60 E12       30.09S
$$

LMZ563-521-522-541>543-281900-
LAKESHORE

STATION/POSITION TIME  TEMP    WIND        PRES    VSBY  WAVE
                       AIR SEA DIR/SP/G                  HT/PER
                 (UTC) (F)     (DEG/KT/KT) (MB)    (MI)  (FT/S)
SHEBOYGAN LKSHOR 1800   55      10/  7/  8 1019.5F
KEWAUNEE LKSHORE 1800   56      40/  3/  6 1019.5F
NORTHPORT PIER   1800   59     330/  5/  7 1017.9F
N MID LAKE BUOY  1800   54 52  290/  4/  6 1017.3F         2/ 4
S GREEN BAY BUOY 1700   59 67  120/  6     1019.9F
SISTER BAY LKSHO 1800   63     350/  7/  8   N/A
STURGEON BAY CG  1800   57 64  110/  4     1018.8      6   1
CHAMBERS ISLAND  1800   61      30/  3/  3 1018.3F
MENOMINEE LKSHOR 1800   60     130/  6/  6 1018.8F
$$


USA.gov is the U.S. government's official web portal to all federal, state and local government web resources and services.